#timestamp,LO_Frequency,Hit,StdDev 
1561255215.4,286047000.8,N
1561255235.3,286047001.1,N
1561255255.1,286046998.4,N
1561255275.8,286046998.3,N
1561255295.7,286046998.6,N
1561255315.5,286046998.3,N
1561255335.3,286047001.1,N
1561255355.2,286047000.8,N
1561255375.0,286047000.4,N
1561255375.9,286047000.4,N
1561255395.7,286047002.3,N
1561255415.6,286047001.1,N
1561255435.4,286046999.9,N
1561255455.2,286047001.2,N
1561255475.1,286047000.1,N
1561255476.0,286047000.1,N
1561255495.8,286047000.8,N
1561255515.6,286047000.4,N
1561255535.5,286047000.0,N
1561255555.3,286047001.5,N
1561255575.1,286047001.8,N
1561255595.9,286047001.7,N
1561255615.7,286047004.0,N
1561255635.5,286047004.2,N
1561255655.4,286047001.8,N
1561255675.2,286047001.8,N
1561255695.0,286047004.1,N
1561255696.0,286047004.1,N
1561255715.8,286047000.2,N
1561255735.6,286046999.7,N
1561255755.5,286046999.8,N
1561255775.3,286047002.8,N
1561255795.1,286047000.7,N
1561255815.9,286047001.1,N
1561255835.7,286046998.1,N
1561255855.5,286046996.5,N
1561255875.4,286046996.8,N
1561255895.2,286046999.1,N
1561255915.0,286046997.1,N
1561255915.9,286046997.1,N
1561255935.8,286046998.0,N
1561255955.6,286046997.3,N
1561255975.4,286046997.6,N
1561255995.3,286046995.7,N
1561256015.1,286046994.6,N
1561256016.0,286046994.6,N
1561256035.8,286046993.9,N
1561256055.7,286046993.5,N
1561256075.5,286046997.5,N
1561256095.3,286046997.2,N
1561256115.2,286046998.0,N
1561256135.9,286046999.4,N
1561256155.7,286046997.2,N
1561256175.6,286046995.4,N
1561256195.4,286046995.9,N
1561256215.2,286046993.7,N
1561256235.1,286046996.1,N
1561256236.0,286046996.1,N
1561256255.8,286046996.0,N
1561256275.6,286046996.1,N
1561256295.5,286046995.5,N
1561256315.3,286046995.6,N
1561256335.1,286046996.8,N
1561256355.9,286046997.7,N
1561256375.7,286046998.3,N
1561256395.5,286046999.3,N
1561256415.4,286046999.3,N
1561256435.2,286046998.7,N
1561256455.0,286046998.3,N
1561256455.9,286046998.3,N
1561256475.8,286046996.5,N
1561256495.6,286046999.5,N
1561256515.4,286046999.0,N
1561256535.3,286046998.3,N
1561256555.1,286046999.4,N
1561256575.8,286046998.6,N
1561256595.7,286047001.1,N
1561256615.5,286046998.7,N
1561256635.3,286046999.0,N
1561256655.2,286047000.5,N
1561256675.0,286047002.4,N
1561256675.9,286047002.4,N
1561256695.8,286046998.5,N
1561256715.6,286047000.9,N
1561256735.4,286047000.2,N
1561256755.3,286047011.9,Y
1561256775.1,286047002.1,P
1561256776.0,286047002.1,N
1561256795.8,286047002.6,N
1561256815.7,286047000.0,N
1561256835.5,286047002.8,N
1561256855.3,286047002.6,N
1561256875.2,286047002.2,N
1561256895.9,286047001.8,N
1561256915.7,286047003.7,N
1561256935.6,286047000.6,N
1561256955.4,286047000.9,N
1561256975.2,286046998.1,N
1561256995.1,286046998.1,N
1561256996.0,286046998.1,N
1561257015.8,286047000.8,N
1561257035.6,286047000.7,N
1561257055.5,286047000.8,N
1561257075.3,286047000.8,N
1561257095.1,286046999.8,N
1561257115.9,286047000.6,N
1561257135.7,286047002.3,N
1561257155.5,286047004.2,N
1561257175.4,286047003.0,N
1561257195.2,286047002.5,N
1561257215.0,286047003.8,N
1561257215.9,286047003.8,N
1561257235.8,286047006.0,Y
1561257255.6,286047003.8,P
1561257275.4,286047001.8,N
1561257295.3,286047003.1,N
1561257315.1,286047003.6,Y
1561257335.8,286047001.3,P
1561257355.7,286047001.3,N
1561257375.5,286047003.3,P
1561257395.4,286047005.6,Y
1561257415.2,286047002.4,P
1561257435.0,286047001.3,P
1561257435.9,286047001.3,N
1561257455.8,286047003.9,Y
1561257475.6,286047002.3,P
1561257495.4,286047000.3,N
1561257515.3,286047001.6,N
1561257535.1,286047004.3,Y
1561257536.0,286047004.3,P
1561257555.8,286047002.1,N
1561257575.7,286047001.8,N
1561257595.5,286047001.8,N
1561257615.3,286047002.6,N
1561257635.2,286047002.4,N
1561257655.9,286047003.7,Y
1561257675.7,286046997.7,P
1561257695.6,286046995.7,N
1561257715.4,286046994.2,N
1561257735.2,286046994.8,N
1561257755.1,286046992.5,N
1561257756.0,286046992.5,N
1561257775.8,286046990.5,N
1561257795.6,286046990.9,N
1561257815.5,286046991.2,N
1561257835.3,286046988.7,Y
1561257855.1,286046996.9,P
1561257875.9,286046996.9,N
1561257895.7,286046996.8,N
1561257915.6,286046996.6,Y
1561257935.4,286047003.2,P
1561257955.2,286047003.5,N
1561257975.1,286047005.4,N
1561257976.0,286047005.4,N
1561257995.8,286047006.3,N
1561258015.6,286047006.3,N
1561258035.5,286047009.0,N
1561258055.3,286047006.4,N
1561258075.1,286047011.3,Y
1561258095.9,286047003.6,P
1561258115.7,286047004.2,P
1561258135.5,286047002.7,P
1561258155.4,286047000.9,N
1561258175.2,286046999.0,N
1561258195.0,286046995.9,N
1561258195.9,286046995.9,N
1561258215.8,286046993.5,N
1561258235.6,286046994.1,N
1561258255.4,286046994.7,N
1561258275.3,286046993.8,N
1561258295.1,286046994.8,N
1561258315.8,286046991.7,N
1561258335.7,286046994.4,N
1561258355.5,286046995.9,N
1561258375.3,286046996.2,N
1561258395.2,286046997.2,N
1561258415.9,286047001.1,N
1561258435.7,286047001.1,N
1561258455.6,286047001.2,N
1561258475.4,286047000.0,N
1561258495.2,286047002.0,N
1561258515.1,286047002.2,N
1561258516.0,286047002.2,N
1561258535.8,286047002.0,N
1561258555.6,286047002.9,N
1561258575.5,286047005.9,N
1561258595.3,286047002.6,N
1561258615.1,286047000.2,N
1561258635.9,286047000.2,N
1561258655.7,286047002.4,N
1561258675.5,286047003.9,N
1561258695.4,286046999.7,N
1561258715.2,286047000.0,N
1561258735.0,286047000.4,N
1561258735.9,286047000.4,N
1561258755.8,286047002.8,N
1561258775.6,286047004.0,N
1561258795.4,286047004.4,N
